User: anonymous   Login
Location: Horowhenua
(40.7500°S, 175.3333°E)
Time: 10:06:55
(UTC+00:00)
Language:

CZ-2C R/B - Orbit

View from above orbital plane
View from above orbital plane
View from above satellite
View from above satellite

Ground track
Ground track

The orbit data is extracted from the following two-line orbital elements,

1 36089U 09061B   23150.92469746  .00000271  00000-0  78335-4 0  9990
2 36089  98.3068 115.5509 0080196 207.9633 151.7241 14.50388009716599
Epoch (UTC): 30 May 2023 22:11:33
Eccentricity: 0.0080196
inclination: 98.3068°
perigee height: 667 km
apogee height: 781 km
right ascension of ascending node: 115.5509°
argument of perigee: 207.9633°
revolutions per day: 14.50388009
mean anomaly at epoch: 151.7241°
orbit number at epoch: 71659

The dashed part of the orbit path shows where the satellite is in the earth's shadow,  

DLR